Location: Assevent
(50.2820°N, 4.0266°E)
Time: 07:26:21
(UTC+00:00)

NOSS 3-2 (C) - Pass Details

Date: 11 December 2025
Orbit: 672 x 1536 km, 63.4° (Epoch: 2 January)

Event Time Altitude Azimuth Distance (km) Brightness Sun altitude
Rises 17:31:54 0° 228° (SW) 3,115 7.4 -16.7°
Reaches altitude 10° 17:34:05 10° 230° (SW) 2,261 6.5 -17.0°
Maximum altitude 17:39:13 75° 317° (NW) 874 3.3 -17.8°
Enters shadow 17:43:09 23° 39° (NE) 1,873 4.5 -18.4°
